{"data":{"norad_id":65091,"intl_designator":"2025-167P","name":"STARLINK-34648","alt_names":[],"object_type":"PAYLOAD","status":"ACTIVE","operator":null,"country":"US","launch_date":"2025-08-04","launch_site_code":"AFETR","launch_vehicle":null,"mission":null,"orbit_class":"UNKNOWN","rcs_meters":null,"size_class":null,"mass_kg":null,"dimensions":null,"purposes":["comms"],"wikipedia_slug":null,"has_3d_model":false,"image_url":null,"decayed_at":null,"tle_current":{"epoch":"2026-09-20T05:19:25.270464Z","epoch_age_seconds":144229,"freshness":"FRESH","line1":"1 65091U 25167P   26263.22182026  .00026750  00000+0  79904-3 0  9995","line2":"2 65091  53.1582 195.2570 0000598  92.4359 267.6712 15.34437803 63378","mean_motion":15.34437803,"eccentricity":5.98e-5,"inclination_deg":53.1582,"raan_deg":195.257,"arg_perigee_deg":92.4359,"mean_anomaly_deg":267.6712,"bstar":0.00079904,"rev_number":6337,"period_min":93.845446011864,"perigee_km":462.18180850378,"apogee_km":462.99995955871,"semimajor_km":6840.7278840312,"source":"CELESTRAK","updated_at":"2026-09-21T09:00:35.523617Z"}}}